Location: Moscow
(55.7500°N, 37.5830°E)
Time: 21:58:44
(UTC+03:00)

N. Korean satellite - Pass Details

Date: 27 February 2021
Orbit: 452 x 499 km, 97.2° (Epoch: 20 April)

Event Time Altitude Azimuth Distance (km) Brightness Sun altitude
Rises 05:26:16 0° 21° (NNE) 2,504 10.6 -17.5°
Reaches altitude 10° 05:28:30 10° 33° (NNE) 1,630 9.8 -17.2°
Maximum altitude 05:31:35 29° 95° (E) 897 8.6 -16.8°
Drops below altitude 10° 05:34:42 10° 158° (SSE) 1,641 9.4 -16.3°
Sets 05:36:57 0° 169° (S) 2,523 10.2 -16.0°
